Epoch 2003 Nov. 17.0 TT = JDT 2452960.5 T 2003 Nov. 14.03057 TT MPC q 1.7863912 (2000.0) P Q z +0.0000440 Peri. 152.23434 +0.47901891 +0.21070698 +/-0.0000244 Node 238.53188 +0.49770845 +0.73444569 e 0.9999215 Incl. 87.53339 +0.72306790 -0.64512952
m1 = 11.0 + 5 logΔ + 10 log r [ ,0] ( 〜2003年11月14日) m1 = 7.3 + 5 logΔ + 30 log r [0, ] (2003年11月14日〜 ) ※ 灰色の曲線は、m1 = 11.0 + 5 logΔ + 10 log r の光度曲線です。